Time,TemperatureF,DewpointF,PressureIn,WindDirection,WindDirectionDegrees,WindSpeedMPH,WindSpeedGustMPH,Humidity,HourlyPrecipIn,Conditions,Clouds,dailyrainin,SoftwareType,DateUTC
2013-08-14 00:00:00,51.0,44.4,30.19,South,180,1.0,1.0,78,0.00,,,-99.99,Weather View 32 v60,2013-08-14 05:00:00,
2013-08-14 00:05:00,51.0,44.7,30.19,SW,225,0.0,1.0,79,0.00,,,-99.99,Weather View 32 v60,2013-08-14 05:05:00,
2013-08-14 00:10:00,51.0,44.7,30.19,SW,225,0.0,1.0,79,0.00,,,-99.99,Weather View 32 v60,2013-08-14 05:10:00,
2013-08-14 00:15:00,51.0,44.7,30.19,SSW,202,0.0,1.0,79,0.00,,,-99.99,Weather View 32 v60,2013-08-14 05:15:00,
2013-08-14 00:20:00,51.0,44.7,30.19,SSW,202,0.0,1.0,79,0.00,,,-99.99,Weather View 32 v60,2013-08-14 05:20:00,
2013-08-14 00:25:00,51.0,45.0,30.19,SSE,158,0.0,1.0,80,0.00,,,-99.99,Weather View 32 v60,2013-08-14 05:25:00,
2013-08-14 00:30:00,51.0,45.0,30.19,SSW,202,0.0,1.0,80,0.00,,,-99.99,Weather View 32 v60,2013-08-14 05:30:00,
2013-08-14 00:35:00,51.0,45.0,30.19,SSW,202,0.0,1.0,80,0.00,,,-99.99,Weather View 32 v60,2013-08-14 05:35:00,
2013-08-14 00:40:00,51.0,45.0,30.19,SSW,202,0.0,1.0,80,0.00,,,-99.99,Weather View 32 v60,2013-08-14 05:40:00,
2013-08-14 00:45:00,50.0,44.1,30.19,SSW,202,0.0,1.0,80,0.00,,,-99.99,Weather View 32 v60,2013-08-14 05:45:00,
2013-08-14 00:50:00,50.0,44.1,30.19,South,180,0.0,1.0,80,0.00,,,-99.99,Weather View 32 v60,2013-08-14 05:50:00,
2013-08-14 00:55:00,51.0,45.4,30.19,SSW,202,0.0,1.0,81,0.00,,,-99.99,Weather View 32 v60,2013-08-14 05:55:00,
2013-08-14 01:00:00,51.0,45.4,30.19,SSW,202,0.0,1.0,81,0.00,,,-99.99,Weather View 32 v60,2013-08-14 06:00:00,
2013-08-14 01:05:00,51.0,45.4,30.19,SSW,202,0.0,1.0,81,0.00,,,-99.99,Weather View 32 v60,2013-08-14 06:05:00,
2013-08-14 01:10:00,50.0,44.4,30.20,SW,225,0.0,1.0,81,0.00,,,-99.99,Weather View 32 v60,2013-08-14 06:10:00,
2013-08-14 01:15:00,50.0,44.4,30.19,SSW,202,0.0,1.0,81,0.00,,,-99.99,Weather View 32 v60,2013-08-14 06:15:00,
2013-08-14 01:20:00,49.0,43.4,30.20,South,180,0.0,1.0,81,0.00,,,-99.99,Weather View 32 v60,2013-08-14 06:20:00,
2013-08-14 01:25:00,49.0,43.7,30.20,SE,135,1.0,1.0,82,0.00,,,-99.99,Weather View 32 v60,2013-08-14 06:25:00,
2013-08-14 01:30:00,49.0,43.7,30.20,South,180,0.0,1.0,82,0.00,,,-99.99,Weather View 32 v60,2013-08-14 06:30:00,
2013-08-14 01:37:00,49.0,43.7,30.20,SSW,202,0.0,1.0,82,0.00,,,-99.99,Weather View 32 v60,2013-08-14 06:37:00,
2013-08-14 01:45:00,48.0,42.8,30.20,SSW,202,0.0,1.0,82,0.00,,,-99.99,Weather View 32 v60,2013-08-14 06:45:00,
2013-08-14 01:50:00,48.0,42.8,30.19,SSE,158,1.0,2.0,82,0.00,,,-99.99,Weather View 32 v60,2013-08-14 06:50:00,
2013-08-14 01:55:00,48.0,43.1,30.19,SSW,202,0.0,2.0,83,0.00,,,-99.99,Weather View 32 v60,2013-08-14 06:55:00,
2013-08-14 02:00:00,48.0,43.1,30.19,SSE,158,0.0,2.0,83,0.00,,,-99.99,Weather View 32 v60,2013-08-14 07:00:00,
2013-08-14 02:05:00,48.0,43.1,30.19,ESE,112,1.0,2.0,83,0.00,,,-99.99,Weather View 32 v60,2013-08-14 07:05:00,
2013-08-14 02:10:00,47.0,42.1,30.19,South,180,0.0,2.0,83,0.00,,,-99.99,Weather View 32 v60,2013-08-14 07:10:00,
2013-08-14 02:15:00,47.0,42.1,30.19,SSW,202,0.0,2.0,83,0.00,,,-99.99,Weather View 32 v60,2013-08-14 07:15:00,
2013-08-14 02:20:00,47.0,42.1,30.19,SSW,202,0.0,2.0,83,0.00,,,-99.99,Weather View 32 v60,2013-08-14 07:20:00,
2013-08-14 02:25:00,47.0,42.1,30.19,SSW,202,0.0,2.0,83,0.00,,,-99.99,Weather View 32 v60,2013-08-14 07:25:00,
2013-08-14 02:35:00,46.0,41.1,30.19,SE,135,0.0,2.0,83,0.00,,,-99.99,Weather View 32 v60,2013-08-14 07:35:00,
2013-08-14 02:40:00,46.0,41.4,30.19,South,180,0.0,2.0,84,0.00,,,-99.99,Weather View 32 v60,2013-08-14 07:40:00,
2013-08-14 02:45:00,46.0,41.4,30.19,East,90,1.0,2.0,84,0.00,,,-99.99,Weather View 32 v60,2013-08-14 07:45:00,
2013-08-14 02:50:00,46.0,41.4,30.19,SSE,158,0.0,2.0,84,0.00,,,-99.99,Weather View 32 v60,2013-08-14 07:50:00,
2013-08-14 02:55:00,46.0,41.4,30.18,South,180,0.0,2.0,84,0.00,,,-99.99,Weather View 32 v60,2013-08-14 07:55:00,
2013-08-14 03:00:00,46.0,41.4,30.19,SSW,202,0.0,2.0,84,0.00,,,-99.99,Weather View 32 v60,2013-08-14 08:00:00,
2013-08-14 03:05:00,46.0,41.4,30.19,SSW,202,0.0,2.0,84,0.00,,,-99.99,Weather View 32 v60,2013-08-14 08:05:00,
2013-08-14 03:10:00,46.0,41.4,30.19,SSE,158,0.0,2.0,84,0.00,,,-99.99,Weather View 32 v60,2013-08-14 08:10:00,
2013-08-14 03:15:00,46.0,41.4,30.19,SSW,202,0.0,2.0,84,0.00,,,-99.99,Weather View 32 v60,2013-08-14 08:15:00,
2013-08-14 03:20:00,46.0,41.4,30.19,SSW,202,0.0,2.0,84,0.00,,,-99.99,Weather View 32 v60,2013-08-14 08:20:00,
2013-08-14 03:25:00,46.0,41.4,30.20,SSW,202,0.0,2.0,84,0.00,,,-99.99,Weather View 32 v60,2013-08-14 08:25:00,
2013-08-14 03:30:00,45.0,40.5,30.20,WSW,248,0.0,2.0,84,0.00,,,-99.99,Weather View 32 v60,2013-08-14 08:30:00,
2013-08-14 03:35:00,45.0,40.5,30.20,SW,225,0.0,2.0,84,0.00,,,-99.99,Weather View 32 v60,2013-08-14 08:35:00,
2013-08-14 03:40:00,45.0,40.8,30.20,SW,225,0.0,2.0,85,0.00,,,-99.99,Weather View 32 v60,2013-08-14 08:40:00,
2013-08-14 03:45:00,45.0,40.8,30.20,SW,225,0.0,2.0,85,0.00,,,-99.99,Weather View 32 v60,2013-08-14 08:45:00,
2013-08-14 03:50:00,45.0,40.8,30.20,WSW,248,0.0,1.0,85,0.00,,,-99.99,Weather View 32 v60,2013-08-14 08:50:00,
2013-08-14 03:55:00,44.0,39.8,30.20,SW,225,0.0,1.0,85,0.00,,,-99.99,Weather View 32 v60,2013-08-14 08:55:00,
2013-08-14 04:00:00,44.0,39.8,30.20,SW,225,0.0,0.0,85,0.00,,,-99.99,Weather View 32 v60,2013-08-14 09:00:00,
2013-08-14 04:05:00,44.0,39.8,30.20,SW,225,0.0,0.0,85,0.00,,,-99.99,Weather View 32 v60,2013-08-14 09:05:00,
2013-08-14 04:10:00,44.0,39.8,30.20,SW,225,0.0,0.0,85,0.00,,,-99.99,Weather View 32 v60,2013-08-14 09:10:00,
2013-08-14 04:15:00,44.0,39.8,30.20,SSW,202,0.0,0.0,85,0.00,,,-99.99,Weather View 32 v60,2013-08-14 09:15:00,
2013-08-14 04:20:00,44.0,39.8,30.20,SSW,202,0.0,0.0,85,0.00,,,-99.99,Weather View 32 v60,2013-08-14 09:20:00,
2013-08-14 04:25:00,44.0,39.8,30.20,SSW,202,0.0,0.0,85,0.00,,,-99.99,Weather View 32 v60,2013-08-14 09:25:00,
2013-08-14 04:30:00,44.0,39.8,30.21,WSW,248,0.0,0.0,85,0.00,,,-99.99,Weather View 32 v60,2013-08-14 09:30:00,
2013-08-14 04:35:00,43.0,38.8,30.21,SW,225,0.0,0.0,85,0.00,,,-99.99,Weather View 32 v60,2013-08-14 09:35:00,
2013-08-14 04:40:00,43.0,39.1,30.20,SSW,202,0.0,0.0,86,0.00,,,-99.99,Weather View 32 v60,2013-08-14 09:40:00,
2013-08-14 04:45:00,43.0,39.1,30.21,SW,225,0.0,0.0,86,0.00,,,-99.99,Weather View 32 v60,2013-08-14 09:45:00,
2013-08-14 04:50:00,43.0,39.1,30.21,SW,225,0.0,0.0,86,0.00,,,-99.99,Weather View 32 v60,2013-08-14 09:50:00,
2013-08-14 05:00:00,43.0,39.1,30.20,SSW,202,0.0,0.0,86,0.00,,,-99.99,Weather View 32 v60,2013-08-14 10:00:00,
2013-08-14 05:05:00,43.0,39.1,30.21,SW,225,0.0,0.0,86,0.00,,,-99.99,Weather View 32 v60,2013-08-14 10:05:00,
2013-08-14 05:10:00,43.0,39.1,30.21,SW,225,0.0,0.0,86,0.00,,,-99.99,Weather View 32 v60,2013-08-14 10:10:00,
2013-08-14 05:15:00,43.0,39.1,30.21,SSW,202,0.0,0.0,86,0.00,,,-99.99,Weather View 32 v60,2013-08-14 10:15:00,
2013-08-14 05:20:00,43.0,39.1,30.21,SSW,202,0.0,0.0,86,0.00,,,-99.99,Weather View 32 v60,2013-08-14 10:20:00,
2013-08-14 05:25:00,42.0,38.1,30.21,SSW,202,0.0,0.0,86,0.00,,,-99.99,Weather View 32 v60,2013-08-14 10:25:00,
2013-08-14 05:30:00,42.0,38.1,30.21,SW,225,0.0,0.0,86,0.00,,,-99.99,Weather View 32 v60,2013-08-14 10:30:00,
2013-08-14 05:35:00,42.0,38.1,30.21,SSW,202,0.0,0.0,86,0.00,,,-99.99,Weather View 32 v60,2013-08-14 10:35:00,
2013-08-14 05:40:00,42.0,38.1,30.21,North,0,0.0,0.0,86,0.00,,,-99.99,Weather View 32 v60,2013-08-14 10:40:00,
2013-08-14 05:45:00,42.0,38.1,30.22,South,180,0.0,1.0,86,0.00,,,-99.99,Weather View 32 v60,2013-08-14 10:45:00,
2013-08-14 05:50:00,42.0,38.1,30.22,South,180,0.0,2.0,86,0.00,,,-99.99,Weather View 32 v60,2013-08-14 10:50:00,
2013-08-14 05:55:00,42.0,38.4,30.22,SSE,158,1.0,2.0,87,0.00,,,-99.99,Weather View 32 v60,2013-08-14 10:55:00,
2013-08-14 06:00:00,42.0,38.4,30.22,South,180,1.0,2.0,87,0.00,,,-99.99,Weather View 32 v60,2013-08-14 11:00:00,
2013-08-14 06:05:00,42.0,38.4,30.22,South,180,0.0,2.0,87,0.00,,,-99.99,Weather View 32 v60,2013-08-14 11:05:00,
2013-08-14 06:10:00,42.0,38.4,30.22,South,180,0.0,2.0,87,0.00,,,-99.99,Weather View 32 v60,2013-08-14 11:10:00,
2013-08-14 06:15:00,42.0,38.4,30.22,SSW,202,0.0,2.0,87,0.00,,,-99.99,Weather View 32 v60,2013-08-14 11:15:00,
2013-08-14 06:20:00,42.0,38.4,30.22,SSW,202,0.0,2.0,87,0.00,,,-99.99,Weather View 32 v60,2013-08-14 11:20:00,
2013-08-14 06:25:00,42.0,38.4,30.22,SE,135,0.0,2.0,87,0.00,,,-99.99,Weather View 32 v60,2013-08-14 11:25:00,
2013-08-14 06:30:00,42.0,38.4,30.22,South,180,0.0,2.0,87,0.00,,,-99.99,Weather View 32 v60,2013-08-14 11:30:00,
2013-08-14 06:35:00,43.0,39.4,30.22,SSW,202,0.0,2.0,87,0.00,,,-99.99,Weather View 32 v60,2013-08-14 11:35:00,
2013-08-14 06:40:00,43.0,39.4,30.22,SSW,202,0.0,2.0,87,0.00,,,-99.99,Weather View 32 v60,2013-08-14 11:40:00,
2013-08-14 06:45:00,43.0,39.4,30.22,ESE,112,0.0,2.0,87,0.00,,,-99.99,Weather View 32 v60,2013-08-14 11:45:00,
2013-08-14 06:50:00,43.0,39.4,30.22,SSE,158,1.0,2.0,87,0.00,,,-99.99,Weather View 32 v60,2013-08-14 11:50:00,
2013-08-14 06:55:00,43.0,39.4,30.22,South,180,1.0,2.0,87,0.00,,,-99.99,Weather View 32 v60,2013-08-14 11:55:00,
2013-08-14 07:00:00,43.0,39.4,30.22,SSE,158,1.0,2.0,87,0.00,,,-99.99,Weather View 32 v60,2013-08-14 12:00:00,
2013-08-14 07:10:00,44.0,40.4,30.22,South,180,1.0,3.0,87,0.00,,,-99.99,Weather View 32 v60,2013-08-14 12:10:00,
2013-08-14 07:15:00,44.0,40.4,30.22,SE,135,1.0,3.0,87,0.00,,,-99.99,Weather View 32 v60,2013-08-14 12:15:00,
2013-08-14 07:20:00,44.0,40.7,30.22,South,180,1.0,3.0,88,0.00,,,-99.99,Weather View 32 v60,2013-08-14 12:20:00,
2013-08-14 07:25:00,45.0,41.7,30.22,South,180,1.0,3.0,88,0.00,,,-99.99,Weather View 32 v60,2013-08-14 12:25:00,
2013-08-14 07:30:00,45.0,41.7,30.22,SSE,158,1.0,3.0,88,0.00,,,-99.99,Weather View 32 v60,2013-08-14 12:30:00,
2013-08-14 07:35:00,46.0,42.6,30.22,SSW,202,1.0,3.0,88,0.00,,,-99.99,Weather View 32 v60,2013-08-14 12:35:00,
2013-08-14 07:41:00,47.0,43.6,30.22,SSE,158,1.0,3.0,88,0.00,,,-99.99,Weather View 32 v60,2013-08-14 12:41:00,
2013-08-14 07:50:00,50.0,46.9,30.22,East,90,1.0,3.0,89,0.00,,,-99.99,Weather View 32 v60,2013-08-14 12:50:00,
2013-08-14 07:55:00,51.0,47.9,30.22,SE,135,1.0,3.0,89,0.00,,,-99.99,Weather View 32 v60,2013-08-14 12:55:00,
2013-08-14 08:00:00,52.0,48.9,30.22,SE,135,1.0,3.0,89,0.00,,,-99.99,Weather View 32 v60,2013-08-14 13:00:00,
2013-08-14 08:05:00,53.0,49.8,30.21,East,90,2.0,3.0,89,0.00,,,-99.99,Weather View 32 v60,2013-08-14 13:05:00,
2013-08-14 08:10:00,54.0,50.8,30.21,SSE,158,1.0,3.0,89,0.00,,,-99.99,Weather View 32 v60,2013-08-14 13:10:00,
2013-08-14 08:20:00,56.0,52.8,30.21,South,180,3.0,3.0,89,0.00,,,-99.99,Weather View 32 v60,2013-08-14 13:20:00,
2013-08-14 08:30:00,58.0,54.5,30.21,SSW,202,1.0,3.0,88,0.00,,,-99.99,Weather View 32 v60,2013-08-14 13:30:00,
2013-08-14 08:35:00,60.0,56.1,30.21,SW,225,1.0,3.0,87,0.00,,,-99.99,Weather View 32 v60,2013-08-14 13:35:00,
2013-08-14 08:40:00,60.0,55.5,30.21,SW,225,2.0,3.0,85,0.00,,,-99.99,Weather View 32 v60,2013-08-14 13:40:00,
2013-08-14 08:45:00,61.0,55.5,30.21,South,180,1.0,3.0,82,0.00,,,-99.99,Weather View 32 v60,2013-08-14 13:45:00,
2013-08-14 08:50:00,63.0,57.1,30.21,SW,225,1.0,3.0,81,0.00,,,-99.99,Weather View 32 v60,2013-08-14 13:50:00,
2013-08-14 08:55:00,64.0,56.3,30.21,SSW,202,3.0,5.0,76,0.00,,,-99.99,Weather View 32 v60,2013-08-14 13:55:00,
2013-08-14 09:05:00,65.0,54.6,30.21,SSW,202,1.0,5.0,69,0.00,,,-99.99,Weather View 32 v60,2013-08-14 14:05:00,
2013-08-14 09:10:00,65.0,54.2,30.21,WSW,248,3.0,5.0,68,0.00,,,-99.99,Weather View 32 v60,2013-08-14 14:10:00,
2013-08-14 09:15:00,66.0,54.3,30.21,SW,225,1.0,5.0,66,0.00,,,-99.99,Weather View 32 v60,2013-08-14 14:15:00,
2013-08-14 09:25:00,65.0,52.1,30.21,SSW,202,5.0,6.0,63,0.00,,,-99.99,Weather View 32 v60,2013-08-14 14:25:00,
2013-08-14 09:30:00,66.0,53.4,30.20,SSW,202,1.0,6.0,64,0.00,,,-99.99,Weather View 32 v60,2013-08-14 14:30:00,
2013-08-14 09:35:00,67.0,53.1,30.20,WNW,292,1.0,6.0,61,0.00,,,-99.99,Weather View 32 v60,2013-08-14 14:35:00,
2013-08-14 09:40:00,67.0,52.2,30.20,SW,225,5.0,6.0,59,0.00,,,-99.99,Weather View 32 v60,2013-08-14 14:40:00,
2013-08-14 09:45:00,67.0,52.6,30.20,South,180,5.0,6.0,60,0.00,,,-99.99,Weather View 32 v60,2013-08-14 14:45:00,
2013-08-14 09:50:00,68.0,53.1,30.20,South,180,3.0,6.0,59,0.00,,,-99.99,Weather View 32 v60,2013-08-14 14:50:00,
2013-08-14 09:55:00,69.0,53.6,30.20,WSW,248,1.0,6.0,58,0.00,,,-99.99,Weather View 32 v60,2013-08-14 14:55:00,
2013-08-14 10:00:00,69.0,52.6,30.20,SSW,202,3.0,6.0,56,0.00,,,-99.99,Weather View 32 v60,2013-08-14 15:00:00,
2013-08-14 10:05:00,70.0,53.0,30.20,SSW,202,1.0,6.0,55,0.00,,,-99.99,Weather View 32 v60,2013-08-14 15:05:00,
2013-08-14 10:10:00,71.0,53.0,30.20,SE,135,2.0,6.0,53,0.00,,,-99.99,Weather View 32 v60,2013-08-14 15:10:00,
2013-08-14 10:15:00,70.0,51.5,30.20,SW,225,1.0,6.0,52,0.00,,,-99.99,Weather View 32 v60,2013-08-14 15:15:00,
2013-08-14 10:25:00,70.0,51.5,30.20,SSW,202,3.0,6.0,52,0.00,,,-99.99,Weather View 32 v60,2013-08-14 15:25:00,
2013-08-14 10:30:00,70.0,50.5,30.20,SSW,202,4.0,6.0,50,0.00,,,-99.99,Weather View 32 v60,2013-08-14 15:30:00,
2013-08-14 10:35:00,70.0,50.5,30.19,SSW,202,3.0,6.0,50,0.00,,,-99.99,Weather View 32 v60,2013-08-14 15:35:00,
2013-08-14 10:40:00,70.0,48.8,30.19,WSW,248,1.0,6.0,47,0.00,,,-99.99,Weather View 32 v60,2013-08-14 15:40:00,
2013-08-14 10:45:00,71.0,49.1,30.19,NW,315,3.0,6.0,46,0.00,,,-99.99,Weather View 32 v60,2013-08-14 15:45:00,
2013-08-14 10:50:00,71.0,49.1,30.19,SW,225,2.0,6.0,46,0.00,,,-99.99,Weather View 32 v60,2013-08-14 15:50:00,
2013-08-14 10:55:00,71.0,45.4,30.19,North,0,3.0,6.0,40,0.00,,,-99.99,Weather View 32 v60,2013-08-14 15:55:00,
2013-08-14 11:00:00,71.0,46.0,30.19,SW,225,3.0,6.0,41,0.00,,,-99.99,Weather View 32 v60,2013-08-14 16:00:00,
2013-08-14 11:05:00,71.0,46.0,30.19,East,90,3.0,6.0,41,0.00,,,-99.99,Weather View 32 v60,2013-08-14 16:05:00,
2013-08-14 11:10:00,71.0,46.0,30.19,East,90,3.0,6.0,41,0.00,,,-99.99,Weather View 32 v60,2013-08-14 16:10:00,
2013-08-14 11:15:00,72.0,45.6,30.19,SSE,158,4.0,6.0,39,0.00,,,-99.99,Weather View 32 v60,2013-08-14 16:15:00,
2013-08-14 11:20:00,71.0,43.3,30.19,East,90,3.0,6.0,37,0.00,,,-99.99,Weather View 32 v60,2013-08-14 16:20:00,
2013-08-14 11:25:00,72.0,45.6,30.19,South,180,2.0,6.0,39,0.00,,,-99.99,Weather View 32 v60,2013-08-14 16:25:00,
2013-08-14 11:35:00,72.0,45.6,30.19,SSW,202,1.0,6.0,39,0.00,,,-99.99,Weather View 32 v60,2013-08-14 16:35:00,
2013-08-14 11:40:00,73.0,45.8,30.19,South,180,4.0,6.0,38,0.00,,,-99.99,Weather View 32 v60,2013-08-14 16:40:00,
2013-08-14 11:45:00,72.0,43.5,30.19,SSW,202,4.0,6.0,36,0.00,,,-99.99,Weather View 32 v60,2013-08-14 16:45:00,
2013-08-14 11:50:00,72.0,44.2,30.19,West,270,3.0,6.0,37,0.00,,,-99.99,Weather View 32 v60,2013-08-14 16:50:00,
2013-08-14 12:00:00,73.0,45.1,30.19,East,90,1.0,6.0,37,0.00,,,-99.99,Weather View 32 v60,2013-08-14 17:00:00,
2013-08-14 12:10:00,73.0,44.4,30.18,SW,225,4.0,6.0,36,0.00,,,-99.99,Weather View 32 v60,2013-08-14 17:10:00,
2013-08-14 12:15:00,73.0,44.4,30.18,South,180,3.0,7.0,36,0.00,,,-99.99,Weather View 32 v60,2013-08-14 17:15:00,
2013-08-14 12:20:00,73.0,44.4,30.18,South,180,3.0,7.0,36,0.00,,,-99.99,Weather View 32 v60,2013-08-14 17:20:00,
2013-08-14 12:25:00,73.0,45.1,30.18,SSW,202,3.0,7.0,37,0.00,,,-99.99,Weather View 32 v60,2013-08-14 17:25:00,
2013-08-14 12:35:00,74.0,45.3,30.17,SW,225,3.0,7.0,36,0.00,,,-99.99,Weather View 32 v60,2013-08-14 17:35:00,
2013-08-14 12:43:00,74.0,45.3,30.17,SW,225,1.0,7.0,36,0.00,,,-99.99,Weather View 32 v60,2013-08-14 17:43:00,
2013-08-14 12:50:00,73.0,43.7,30.17,SW,225,1.0,7.0,35,0.00,,,-99.99,Weather View 32 v60,2013-08-14 17:50:00,
2013-08-14 13:00:00,75.0,45.4,30.17,NNE,22,5.0,7.0,35,0.00,,,-99.99,Weather View 32 v60,2013-08-14 18:00:00,
2013-08-14 13:10:00,75.0,43.9,30.16,SE,135,3.0,7.0,33,0.00,,,-99.99,Weather View 32 v60,2013-08-14 18:10:00,
2013-08-14 13:20:00,75.0,42.2,30.16,North,0,8.0,11.0,31,0.00,,,-99.99,Weather View 32 v60,2013-08-14 18:20:00,
2013-08-14 13:25:00,76.0,43.9,30.16,NNE,22,6.0,12.0,32,0.00,,,-99.99,Weather View 32 v60,2013-08-14 18:25:00,
2013-08-14 13:35:00,75.0,43.1,30.16,WSW,248,1.0,13.0,32,0.00,,,-99.99,Weather View 32 v60,2013-08-14 18:35:00,
2013-08-14 13:40:00,75.0,42.2,30.16,North,0,3.0,13.0,31,0.00,,,-99.99,Weather View 32 v60,2013-08-14 18:40:00,
2013-08-14 13:45:00,75.0,43.1,30.16,NNW,338,3.0,13.0,32,0.00,,,-99.99,Weather View 32 v60,2013-08-14 18:45:00,
2013-08-14 13:50:00,75.0,43.1,30.15,NW,315,1.0,13.0,32,0.00,,,-99.99,Weather View 32 v60,2013-08-14 18:50:00,
2013-08-14 13:55:00,76.0,43.1,30.15,North,0,7.0,13.0,31,0.00,,,-99.99,Weather View 32 v60,2013-08-14 18:55:00,
2013-08-14 14:00:00,76.0,43.1,30.15,WNW,292,1.0,13.0,31,0.00,,,-99.99,Weather View 32 v60,2013-08-14 19:00:00,
2013-08-14 14:05:00,76.0,42.2,30.14,WNW,292,5.0,13.0,30,0.00,,,-99.99,Weather View 32 v60,2013-08-14 19:05:00,
2013-08-14 14:15:00,76.0,43.1,30.14,WSW,248,4.0,13.0,31,0.00,,,-99.99,Weather View 32 v60,2013-08-14 19:15:00,
2013-08-14 14:25:00,76.0,43.1,30.14,WNW,292,1.0,13.0,31,0.00,,,-99.99,Weather View 32 v60,2013-08-14 19:25:00,
2013-08-14 14:35:00,76.0,43.1,30.14,SW,225,3.0,11.0,31,0.00,,,-99.99,Weather View 32 v60,2013-08-14 19:35:00,
2013-08-14 14:40:00,77.0,43.1,30.13,WSW,248,2.0,11.0,30,0.00,,,-99.99,Weather View 32 v60,2013-08-14 19:40:00,
2013-08-14 14:45:00,77.0,44.0,30.13,NNE,22,5.0,11.0,31,0.00,,,-99.99,Weather View 32 v60,2013-08-14 19:45:00,
2013-08-14 14:50:00,77.0,44.0,30.13,NW,315,6.0,11.0,31,0.00,,,-99.99,Weather View 32 v60,2013-08-14 19:50:00,
2013-08-14 15:00:00,77.0,43.1,30.13,NNW,338,5.0,10.0,30,0.00,,,-99.99,Weather View 32 v60,2013-08-14 20:00:00,
2013-08-14 15:10:00,76.0,43.1,30.12,North,0,4.0,10.0,31,0.00,,,-99.99,Weather View 32 v60,2013-08-14 20:10:00,
2013-08-14 15:15:00,77.0,44.0,30.12,WSW,248,4.0,10.0,31,0.00,,,-99.99,Weather View 32 v60,2013-08-14 20:15:00,
2013-08-14 15:25:00,76.0,42.2,30.12,NNW,338,6.0,10.0,30,0.00,,,-99.99,Weather View 32 v60,2013-08-14 20:25:00,
2013-08-14 15:30:00,75.0,43.1,30.12,NNW,338,6.0,10.0,32,0.00,,,-99.99,Weather View 32 v60,2013-08-14 20:30:00,
2013-08-14 15:35:00,74.0,43.0,30.12,North,0,3.0,10.0,33,0.00,,,-99.99,Weather View 32 v60,2013-08-14 20:35:00,
2013-08-14 15:40:00,73.0,42.9,30.12,NNW,338,2.0,10.0,34,0.00,,,-99.99,Weather View 32 v60,2013-08-14 20:40:00,
2013-08-14 15:45:00,73.0,43.7,30.12,WNW,292,1.0,10.0,35,0.00,,,-99.99,Weather View 32 v60,2013-08-14 20:45:00,
2013-08-14 15:50:00,73.0,43.7,30.12,West,270,2.0,10.0,35,0.00,,,-99.99,Weather View 32 v60,2013-08-14 20:50:00,
2013-08-14 15:55:00,75.0,44.6,30.12,SSE,158,1.0,10.0,34,0.00,,,-99.99,Weather View 32 v60,2013-08-14 20:55:00,
2013-08-14 16:01:00,75.0,43.1,30.12,SSE,158,1.0,10.0,32,0.00,,,-99.99,Weather View 32 v60,2013-08-14 21:01:00,
2013-08-14 16:10:00,75.0,42.2,30.12,NW,315,3.0,10.0,31,0.00,,,-99.99,Weather View 32 v60,2013-08-14 21:10:00,
2013-08-14 16:20:00,74.0,43.0,30.11,NNE,22,3.0,10.0,33,0.00,,,-99.99,Weather View 32 v60,2013-08-14 21:20:00,
2013-08-14 16:25:00,74.0,43.8,30.11,NW,315,1.0,10.0,34,0.00,,,-99.99,Weather View 32 v60,2013-08-14 21:25:00,
2013-08-14 16:30:00,76.0,43.9,30.11,SSW,202,3.0,9.0,32,0.00,,,-99.99,Weather View 32 v60,2013-08-14 21:30:00,
2013-08-14 16:35:00,77.0,44.0,30.11,South,180,3.0,9.0,31,0.00,,,-99.99,Weather View 32 v60,2013-08-14 21:35:00,
2013-08-14 16:40:00,79.0,44.8,30.11,SW,225,1.0,8.0,30,0.00,,,-99.99,Weather View 32 v60,2013-08-14 21:40:00,
2013-08-14 16:46:00,80.0,45.7,30.11,ESE,112,2.0,8.0,30,0.00,,,-99.99,Weather View 32 v60,2013-08-14 21:46:00,
2013-08-14 16:55:00,78.0,43.1,30.10,NW,315,4.0,8.0,29,0.00,,,-99.99,Weather View 32 v60,2013-08-14 21:55:00,
2013-08-14 17:00:00,78.0,44.0,30.10,ESE,112,1.0,8.0,30,0.00,,,-99.99,Weather View 32 v60,2013-08-14 22:00:00,
2013-08-14 17:10:00,78.0,44.0,30.10,NNE,22,5.0,7.0,30,0.00,,,-99.99,Weather View 32 v60,2013-08-14 22:10:00,
2013-08-14 17:15:00,78.0,44.0,30.10,West,270,2.0,7.0,30,0.00,,,-99.99,Weather View 32 v60,2013-08-14 22:15:00,
2013-08-14 17:20:00,78.0,43.1,30.10,NNW,338,4.0,7.0,29,0.00,,,-99.99,Weather View 32 v60,2013-08-14 22:20:00,
2013-08-14 17:25:00,78.0,43.1,30.10,NNW,338,5.0,7.0,29,0.00,,,-99.99,Weather View 32 v60,2013-08-14 22:25:00,
2013-08-14 17:30:00,79.0,43.9,30.09,WNW,292,3.0,7.0,29,0.00,,,-99.99,Weather View 32 v60,2013-08-14 22:30:00,
2013-08-14 17:35:00,78.0,43.1,30.09,WSW,248,3.0,10.0,29,0.00,,,-99.99,Weather View 32 v60,2013-08-14 22:35:00,
2013-08-14 17:40:00,78.0,43.1,30.09,WNW,292,3.0,10.0,29,0.00,,,-99.99,Weather View 32 v60,2013-08-14 22:40:00,
2013-08-14 17:45:00,77.0,42.2,30.09,WSW,248,1.0,10.0,29,0.00,,,-99.99,Weather View 32 v60,2013-08-14 22:45:00,
2013-08-14 17:55:00,77.0,43.1,30.09,SW,225,1.0,10.0,30,0.00,,,-99.99,Weather View 32 v60,2013-08-14 22:55:00,
2013-08-14 18:00:00,77.0,43.1,30.09,NNW,338,2.0,10.0,30,0.00,,,-99.99,Weather View 32 v60,2013-08-14 23:00:00,
2013-08-14 18:05:00,76.0,43.1,30.09,SW,225,1.0,10.0,31,0.00,,,-99.99,Weather View 32 v60,2013-08-14 23:05:00,
2013-08-14 18:10:00,76.0,43.1,30.09,NW,315,2.0,10.0,31,0.00,,,-99.99,Weather View 32 v60,2013-08-14 23:10:00,
2013-08-14 18:15:00,75.0,43.1,30.09,NW,315,2.0,10.0,32,0.00,,,-99.99,Weather View 32 v60,2013-08-14 23:15:00,
2013-08-14 18:25:00,74.0,43.8,30.08,NW,315,1.0,10.0,34,0.00,,,-99.99,Weather View 32 v60,2013-08-14 23:25:00,
2013-08-14 18:30:00,74.0,43.8,30.08,WSW,248,1.0,10.0,34,0.00,,,-99.99,Weather View 32 v60,2013-08-14 23:30:00,
2013-08-14 18:35:00,74.0,44.5,30.08,West,270,1.0,8.0,35,0.00,,,-99.99,Weather View 32 v60,2013-08-14 23:35:00,
2013-08-14 18:40:00,74.0,45.3,30.08,West,270,1.0,6.0,36,0.00,,,-99.99,Weather View 32 v60,2013-08-14 23:40:00,
2013-08-14 18:45:00,74.0,45.3,30.08,NW,315,1.0,6.0,36,0.00,,,-99.99,Weather View 32 v60,2013-08-14 23:45:00,
2013-08-14 18:50:00,74.0,46.0,30.08,SSW,202,0.0,5.0,37,0.00,,,-99.99,Weather View 32 v60,2013-08-14 23:50:00,
2013-08-14 18:55:00,74.0,46.7,30.08,SW,225,0.0,5.0,38,0.00,,,-99.99,Weather View 32 v60,2013-08-14 23:55:00,
2013-08-14 19:00:00,73.0,45.8,30.08,SW,225,0.0,5.0,38,0.00,,,-99.99,Weather View 32 v60,2013-08-15 00:00:00,
2013-08-14 19:05:00,73.0,46.5,30.08,WSW,248,0.0,5.0,39,0.00,,,-99.99,Weather View 32 v60,2013-08-15 00:05:00,
2013-08-14 19:15:00,73.0,47.8,30.08,SW,225,0.0,5.0,41,0.00,,,-99.99,Weather View 32 v60,2013-08-15 00:15:00,
2013-08-14 19:20:00,73.0,48.5,30.08,SW,225,0.0,5.0,42,0.00,,,-99.99,Weather View 32 v60,2013-08-15 00:20:00,
2013-08-14 19:25:00,72.0,48.8,30.08,SSW,202,0.0,3.0,44,0.00,,,-99.99,Weather View 32 v60,2013-08-15 00:25:00,
2013-08-14 19:30:00,72.0,48.8,30.07,SW,225,0.0,3.0,44,0.00,,,-99.99,Weather View 32 v60,2013-08-15 00:30:00,
2013-08-14 19:35:00,71.0,48.5,30.07,SW,225,1.0,3.0,45,0.00,,,-99.99,Weather View 32 v60,2013-08-15 00:35:00,
2013-08-14 19:45:00,70.0,48.8,30.08,SW,225,2.0,3.0,47,0.00,,,-99.99,Weather View 32 v60,2013-08-15 00:45:00,
2013-08-14 19:50:00,69.0,48.4,30.08,SSW,202,1.0,3.0,48,0.00,,,-99.99,Weather View 32 v60,2013-08-15 00:50:00,
2013-08-14 19:55:00,69.0,49.0,30.08,SW,225,1.0,3.0,49,0.00,,,-99.99,Weather View 32 v60,2013-08-15 00:55:00,
2013-08-14 20:00:00,68.0,48.6,30.08,SW,225,1.0,3.0,50,0.00,,,-99.99,Weather View 32 v60,2013-08-15 01:00:00,
2013-08-14 20:05:00,68.0,48.6,30.08,SW,225,1.0,3.0,50,0.00,,,-99.99,Weather View 32 v60,2013-08-15 01:05:00,
2013-08-14 20:10:00,67.0,48.2,30.08,SW,225,1.0,3.0,51,0.00,,,-99.99,Weather View 32 v60,2013-08-15 01:10:00,
2013-08-14 20:15:00,66.0,47.3,30.08,SW,225,1.0,3.0,51,0.00,,,-99.99,Weather View 32 v60,2013-08-15 01:15:00,
2013-08-14 20:20:00,66.0,47.8,30.08,SW,225,0.0,3.0,52,0.00,,,-99.99,Weather View 32 v60,2013-08-15 01:20:00,
2013-08-14 20:25:00,65.0,46.9,30.08,SW,225,0.0,3.0,52,0.00,,,-99.99,Weather View 32 v60,2013-08-15 01:25:00,
2013-08-14 20:30:00,65.0,47.4,30.08,SSW,202,0.0,3.0,53,0.00,,,-99.99,Weather View 32 v60,2013-08-15 01:30:00,
2013-08-14 20:40:00,64.0,47.5,30.08,SW,225,1.0,3.0,55,0.00,,,-99.99,Weather View 32 v60,2013-08-15 01:40:00,
2013-08-14 20:45:00,63.0,47.5,30.08,SW,225,0.0,3.0,57,0.00,,,-99.99,Weather View 32 v60,2013-08-15 01:45:00,
2013-08-14 20:50:00,62.0,47.0,30.08,SW,225,0.0,2.0,58,0.00,,,-99.99,Weather View 32 v60,2013-08-15 01:50:00,
2013-08-14 21:00:00,61.0,47.0,30.08,SW,225,0.0,2.0,60,0.00,,,-99.99,Weather View 32 v60,2013-08-15 02:00:00,
2013-08-14 21:05:00,61.0,47.4,30.08,SSW,202,1.0,2.0,61,0.00,,,-99.99,Weather View 32 v60,2013-08-15 02:05:00,
2013-08-14 21:10:00,61.0,47.9,30.08,SSW,202,0.0,2.0,62,0.00,,,-99.99,Weather View 32 v60,2013-08-15 02:10:00,
2013-08-14 21:15:00,60.0,47.3,30.08,SSW,202,0.0,2.0,63,0.00,,,-99.99,Weather View 32 v60,2013-08-15 02:15:00,
2013-08-14 21:25:00,59.0,47.2,30.08,SW,225,0.0,2.0,65,0.00,,,-99.99,Weather View 32 v60,2013-08-15 02:25:00,
2013-08-14 21:30:00,59.0,47.6,30.09,SW,225,0.0,2.0,66,0.00,,,-99.99,Weather View 32 v60,2013-08-15 02:30:00,
2013-08-14 21:35:00,59.0,48.0,30.08,SW,225,0.0,2.0,67,0.00,,,-99.99,Weather View 32 v60,2013-08-15 02:35:00,
2013-08-14 21:40:00,58.0,47.5,30.08,SW,225,0.0,2.0,68,0.00,,,-99.99,Weather View 32 v60,2013-08-15 02:40:00,
2013-08-14 21:45:00,58.0,47.5,30.08,SW,225,0.0,2.0,68,0.00,,,-99.99,Weather View 32 v60,2013-08-15 02:45:00,
2013-08-14 21:50:00,58.0,47.9,30.08,SW,225,0.0,1.0,69,0.00,,,-99.99,Weather View 32 v60,2013-08-15 02:50:00,
2013-08-14 21:55:00,57.0,47.3,30.09,SW,225,0.0,1.0,70,0.00,,,-99.99,Weather View 32 v60,2013-08-15 02:55:00,
2013-08-14 22:00:00,57.0,47.3,30.09,SSW,202,0.0,1.0,70,0.00,,,-99.99,Weather View 32 v60,2013-08-15 03:00:00,
2013-08-14 22:05:00,57.0,47.7,30.09,SW,225,0.0,1.0,71,0.00,,,-99.99,Weather View 32 v60,2013-08-15 03:05:00,
2013-08-14 22:10:00,57.0,48.0,30.09,SW,225,0.0,1.0,72,0.00,,,-99.99,Weather View 32 v60,2013-08-15 03:10:00,
2013-08-14 22:15:00,57.0,48.4,30.09,SW,225,0.0,1.0,73,0.00,,,-99.99,Weather View 32 v60,2013-08-15 03:15:00,
2013-08-14 22:20:00,56.0,47.4,30.09,SW,225,0.0,2.0,73,0.00,,,-99.99,Weather View 32 v60,2013-08-15 03:20:00,
2013-08-14 22:25:00,56.0,47.8,30.09,SSW,202,0.0,2.0,74,0.00,,,-99.99,Weather View 32 v60,2013-08-15 03:25:00,
2013-08-14 22:30:00,56.0,47.8,30.09,SSW,202,0.0,2.0,74,0.00,,,-99.99,Weather View 32 v60,2013-08-15 03:30:00,
2013-08-14 22:35:00,56.0,47.8,30.09,SSW,202,0.0,2.0,74,0.00,,,-99.99,Weather View 32 v60,2013-08-15 03:35:00,
2013-08-14 22:40:00,56.0,48.2,30.09,SW,225,0.0,2.0,75,0.00,,,-99.99,Weather View 32 v60,2013-08-15 03:40:00,
2013-08-14 22:45:00,56.0,48.2,30.09,SW,225,1.0,2.0,75,0.00,,,-99.99,Weather View 32 v60,2013-08-15 03:45:00,
2013-08-14 22:50:00,56.0,48.2,30.09,SW,225,1.0,3.0,75,0.00,,,-99.99,Weather View 32 v60,2013-08-15 03:50:00,
2013-08-14 22:55:00,56.0,48.5,30.09,SW,225,1.0,3.0,76,0.00,,,-99.99,Weather View 32 v60,2013-08-15 03:55:00,
2013-08-14 23:00:00,55.0,47.6,30.09,SSW,202,1.0,3.0,76,0.00,,,-99.99,Weather View 32 v60,2013-08-15 04:00:00,
2013-08-14 23:05:00,55.0,47.6,30.09,SW,225,1.0,3.0,76,0.00,,,-99.99,Weather View 32 v60,2013-08-15 04:05:00,
2013-08-14 23:10:00,55.0,47.9,30.09,SW,225,1.0,3.0,77,0.00,,,-99.99,Weather View 32 v60,2013-08-15 04:10:00,
2013-08-14 23:15:00,55.0,47.9,30.09,SW,225,1.0,3.0,77,0.00,,,-99.99,Weather View 32 v60,2013-08-15 04:15:00,
2013-08-14 23:20:00,55.0,47.9,30.10,SSW,202,2.0,3.0,77,0.00,,,-99.99,Weather View 32 v60,2013-08-15 04:20:00,
2013-08-14 23:25:00,55.0,48.3,30.10,WSW,248,3.0,5.0,78,0.00,,,-99.99,Weather View 32 v60,2013-08-15 04:25:00,
2013-08-14 23:30:00,55.0,48.3,30.10,SW,225,2.0,5.0,78,0.00,,,-99.99,Weather View 32 v60,2013-08-15 04:30:00,
2013-08-14 23:35:00,55.0,48.3,30.09,SSW,202,2.0,5.0,78,0.00,,,-99.99,Weather View 32 v60,2013-08-15 04:35:00,
2013-08-14 23:40:00,54.0,47.3,30.10,SSW,202,2.0,5.0,78,0.00,,,-99.99,Weather View 32 v60,2013-08-15 04:40:00,
2013-08-14 23:45:00,54.0,47.6,30.10,SW,225,2.0,5.0,79,0.00,,,-99.99,Weather View 32 v60,2013-08-15 04:45:00,
2013-08-14 23:50:00,54.0,47.6,30.10,SW,225,2.0,5.0,79,0.00,,,-99.99,Weather View 32 v60,2013-08-15 04:50:00,
2013-08-14 23:55:00,54.0,47.6,30.10,WSW,248,1.0,5.0,79,0.00,,,-99.99,Weather View 32 v60,2013-08-15 04:55:00,